| time (UTC) | temp F | wind direction | speed MPH | gust MPH | rain 1hr in | rain 24hr in | rain mn in | humidity % | barometer mb |
| 20260505121506 | 45 | 123 | 0.0 | 0.0 | 0.01 | 0.45 | 0.11 | 95 | 1012.6 |
| 20260505121005 | 45 | 123 | 0.0 | 0.0 | 0.02 | 0.45 | 0.11 | 95 | 1012.4 |
| 20260505120007 | 45 | 123 | 0.0 | 0.0 | 0.02 | 0.45 | 0.11 | 95 | 1012.3 |
| 20260505115506 | 45 | 123 | 0.0 | 0.0 | 0.02 | 0.45 | 0.11 | 95 | 1012.4 |
| 20260505115005 | 45 | 123 | 0.0 | 0.0 | 0.03 | 0.45 | 0.11 | 95 | 1012.4 |
| 20260505114006 | 45 | 123 | 0.0 | 0.0 | 0.05 | 0.45 | 0.11 | 95 | 1012.3 |
| 20260505113505 | 45 | 123 | 0.0 | 0.0 | 0.06 | 0.45 | 0.11 | 95 | 1012.4 |
| 20260505113006 | 45 | 123 | 0.0 | 0.0 | 0.06 | 0.44 | 0.10 | 95 | 1012.3 |
| 20260505112505 | 45 | 123 | 0.0 | 0.0 | 0.06 | 0.44 | 0.10 | 95 | 1012.3 |
| 20260505112005 | 45 | 123 | 0.0 | 0.0 | 0.07 | 0.44 | 0.10 | 95 | 1012.3 |
| 20260505111517 | 45 | 123 | 0.0 | 0.0 | 0.07 | 0.44 | 0.10 | 95 | 1012.5 |
| 20260505111006 | 45 | 123 | 0.0 | 0.0 | 0.06 | 0.43 | 0.09 | 95 | 1012.6 |
| 20260505110506 | 45 | 123 | 0.0 | 0.0 | 0.06 | 0.43 | 0.09 | 95 | 1012.8 |
| 20260505101506 | 45 | 123 | 0.0 | 0.0 | 0.00 | 0.37 | 0.03 | 95 | 1012.8 |
| 20260505101005 | 45 | 123 | 0.0 | 0.0 | 0.00 | 0.37 | 0.03 | 94 | 1012.8 |
| 20260505100505 | 45 | 123 | 0.0 | 0.0 | 0.00 | 0.37 | 0.03 | 95 | 1012.9 |
| 20260505100005 | 45 | 123 | 0.0 | 0.0 | 0.00 | 0.37 | 0.03 | 95 | 1013.1 |
| 20260505095505 | 45 | 123 | 0.0 | 0.0 | 0.00 | 0.37 | 0.03 | 95 | 1013.0 |
| 20260505095005 | 45 | 123 | 0.0 | 0.0 | 0.00 | 0.37 | 0.03 | 95 | 1012.9 |
| 20260505094505 | 45 | 123 | 0.0 | 0.0 | 0.00 | 0.37 | 0.03 | 95 | 1012.8 |
| 20260505094006 | 45 | 123 | 0.0 | 0.0 | 0.00 | 0.37 | 0.03 | 95 | 1012.9 |
| 20260505093505 | 45 | 123 | 0.0 | 0.0 | 0.00 | 0.37 | 0.03 | 95 | 1013.0 |
| 20260505093005 | 45 | 123 | 0.0 | 0.0 | 0.00 | 0.37 | 0.03 | 95 | 1013.0 |
| 20260505092505 | 45 | 123 | 0.0 | 0.0 | 0.00 | 0.37 | 0.03 | 94 | 1013.1 |
| 20260505092005 | 45 | 123 | 0.0 | 0.0 | 0.00 | 0.37 | 0.03 | 94 | 1013.0 |
| 20260505091005 | 45 | 123 | 0.0 | 0.0 | 0.00 | 0.37 | 0.03 | 94 | 1012.9 |
| 20260505090505 | 45 | 123 | 0.0 | 0.0 | 0.00 | 0.37 | 0.03 | 94 | 1012.9 |
| 20260505090005 | 45 | 123 | 0.0 | 0.0 | 0.00 | 0.37 | 0.03 | 94 | 1013.1 |
| 20260505085505 | 45 | 123 | 0.0 | 0.0 | 0.00 | 0.37 | 0.03 | 94 | 1013.1 |
| 20260505085006 | 45 | 123 | 0.0 | 0.0 | 0.01 | 0.37 | 0.03 | 94 | 1013.3 |
| 20260505084505 | 46 | 123 | 0.0 | 0.0 | 0.01 | 0.37 | 0.03 | 95 | 1013.4 |
| 20260505084005 | 45 | 123 | 0.0 | 0.0 | 0.01 | 0.37 | 0.03 | 95 | 1013.5 |
| 20260505083505 | 46 | 123 | 0.0 | 0.0 | 0.01 | 0.37 | 0.03 | 95 | 1013.5 |
| 20260505083006 | 45 | 123 | 0.0 | 0.0 | 0.01 | 0.37 | 0.03 | 94 | 1013.6 |
| 20260505082512 | 45 | 123 | 0.0 | 0.0 | 0.01 | 0.37 | 0.03 | 94 | 1013.5 |
| 20260505082005 | 45 | 123 | 0.0 | 0.0 | 0.02 | 0.37 | 0.03 | 94 | 1013.3 |
| 20260505081005 | 45 | 123 | 0.0 | 0.0 | 0.02 | 0.37 | 0.03 | 94 | 1013.5 |
| 20260505080005 | 45 | 123 | 0.0 | 0.0 | 0.03 | 0.37 | 0.03 | 94 | 1013.5 |
| 20260505075505 | 45 | 123 | 0.0 | 0.0 | 0.03 | 0.37 | 0.03 | 94 | 1013.4 |
| 20260505075005 | 45 | 123 | 0.0 | 0.0 | 0.03 | 0.36 | 0.02 | 94 | 1013.2 |
| 20260505074005 | 45 | 123 | 0.0 | 0.0 | 0.07 | 0.36 | 0.02 | 94 | 1013.3 |
| 20260505073506 | 45 | 123 | 0.0 | 0.0 | 0.08 | 0.36 | 0.02 | 94 | 1013.3 |
| 20260505073005 | 45 | 123 | 0.0 | 0.0 | 0.09 | 0.36 | 0.02 | 94 | 1013.4 |
| 20260505072505 | 45 | 123 | 0.0 | 0.0 | 0.10 | 0.36 | 0.02 | 94 | 1013.3 |
| 20260505072006 | 45 | 123 | 0.0 | 0.0 | 0.09 | 0.35 | 0.01 | 94 | 1013.2 |
| 20260505071505 | 45 | 123 | 0.0 | 0.0 | 0.09 | 0.35 | 0.01 | 94 | 1013.2 |
| 20260505071007 | 45 | 123 | 0.0 | 0.0 | 0.10 | 0.35 | 0.01 | 94 | 1013.3 |
| 20260505070506 | 45 | 123 | 0.0 | 0.0 | 0.10 | 0.35 | 0.01 | 94 | 1013.3 |
| 20260505070006 | 45 | 123 | 0.0 | 0.0 | 0.09 | 0.34 | 0.00 | 94 | 1013.3 |
| 20260505065506 | 45 | 123 | 0.0 | 0.0 | 0.09 | 0.34 | 0.34 | 94 | 1013.3 |
| 20260505065005 | 45 | 123 | 0.0 | 0.0 | 0.08 | 0.33 | 0.33 | 94 | 1013.3 |
| 20260505064505 | 46 | 123 | 0.0 | 0.0 | 0.08 | 0.32 | 0.32 | 94 | 1013.4 |
| 20260505064005 | 46 | 123 | 0.0 | 0.0 | 0.06 | 0.30 | 0.30 | 94 | 1013.4 |
| 20260505063505 | 46 | 123 | 0.0 | 0.0 | 0.04 | 0.28 | 0.28 | 94 | 1013.6 |
| 20260505063005 | 46 | 123 | 0.0 | 0.0 | 0.03 | 0.27 | 0.27 | 94 | 1013.7 |
| 20260505062505 | 45 | 123 | 0.0 | 0.0 | 0.02 | 0.26 | 0.26 | 93 | 1013.5 |
| 20260505062005 | 45 | 123 | 0.0 | 0.0 | 0.02 | 0.26 | 0.26 | 93 | 1013.5 |
| 20260505061505 | 46 | 123 | 0.0 | 0.0 | 0.02 | 0.26 | 0.26 | 93 | 1013.6 |
| 20260505061005 | 46 | 123 | 0.0 | 0.0 | 0.01 | 0.25 | 0.25 | 93 | 1013.4 |
| 20260505060504 | 46 | 123 | 0.0 | 0.0 | 0.01 | 0.25 | 0.25 | 93 | 1013.3 |
| 20260505060005 | 46 | 123 | 0.0 | 0.0 | 0.01 | 0.25 | 0.25 | 93 | 1013.3 |
| 20260505055506 | 46 | 123 | 0.0 | 0.0 | 0.01 | 0.25 | 0.25 | 93 | 1013.3 |
| 20260505055006 | 46 | 123 | 0.0 | 0.0 | 0.01 | 0.25 | 0.25 | 93 | 1013.2 |
| 20260505054505 | 46 | 123 | 0.0 | 0.0 | 0.00 | 0.24 | 0.24 | 93 | 1013.4 |
| 20260505054005 | 46 | 123 | 0.0 | 0.0 | 0.00 | 0.24 | 0.24 | 93 | 1013.4 |
| 20260505053505 | 46 | 123 | 0.0 | 0.0 | 0.00 | 0.24 | 0.24 | 93 | 1013.5 |
| 20260505053005 | 46 | 123 | 0.0 | 0.0 | 0.00 | 0.24 | 0.24 | 93 | 1013.5 |
| 20260505052505 | 46 | 123 | 0.0 | 0.0 | 0.00 | 0.24 | 0.24 | 93 | 1013.5 |
| 20260505052005 | 46 | 123 | 0.0 | 0.0 | 0.01 | 0.24 | 0.24 | 93 | 1013.5 |
| 20260505051505 | 46 | 123 | 0.0 | 0.0 | 0.01 | 0.24 | 0.24 | 93 | 1013.4 |
| 20260505051006 | 46 | 123 | 0.0 | 0.0 | 0.01 | 0.24 | 0.24 | 93 | 1013.5 |
| 20260505050505 | 46 | 123 | 0.0 | 0.0 | 0.01 | 0.24 | 0.24 | 93 | 1013.5 |
| 20260505041505 | 47 | 123 | 0.0 | 1.0 | 0.00 | 0.23 | 0.23 | 93 | 1013.5 |
| 20260505041005 | 47 | 123 | 0.0 | 0.0 | 0.00 | 0.23 | 0.23 | 93 | 1013.5 |
| 20260505040505 | 47 | 123 | 0.0 | 0.0 | 0.00 | 0.23 | 0.23 | 93 | 1013.4 |
| 20260505040005 | 47 | 123 | 0.0 | 1.0 | 0.00 | 0.23 | 0.23 | 93 | 1013.4 |
| 20260505035505 | 47 | 123 | 1.0 | 2.0 | 0.00 | 0.23 | 0.23 | 93 | 1013.4 |
| 20260505035005 | 47 | 123 | 0.0 | 0.0 | 0.00 | 0.23 | 0.23 | 93 | 1013.4 |
| 20260505034505 | 47 | 123 | 0.0 | 0.0 | 0.00 | 0.23 | 0.23 | 93 | 1013.4 |
| 20260505034005 | 47 | 123 | 0.0 | 0.0 | 0.00 | 0.23 | 0.23 | 93 | 1013.5 |
| 20260505033505 | 47 | 123 | 0.0 | 0.0 | 0.00 | 0.23 | 0.23 | 93 | 1013.3 |
| 20260505033005 | 47 | 123 | 0.0 | 0.0 | 0.00 | 0.23 | 0.23 | 93 | 1013.3 |
| 20260505032505 | 47 | 123 | 0.0 | 0.0 | 0.00 | 0.23 | 0.23 | 93 | 1013.1 |
| 20260505032005 | 47 | 123 | 0.0 | 0.0 | 0.00 | 0.23 | 0.23 | 93 | 1013.1 |
| 20260505031504 | 47 | 123 | 0.0 | 0.0 | 0.00 | 0.23 | 0.23 | 93 | 1013.2 |
| 20260505031005 | 47 | 123 | 0.0 | 0.0 | 0.00 | 0.23 | 0.23 | 93 | 1013.1 |
| 20260505030505 | 47 | 123 | 0.0 | 0.0 | 0.00 | 0.23 | 0.23 | 92 | 1013.1 |
| 20260505030005 | 47 | 123 | 0.0 | 0.0 | 0.00 | 0.23 | 0.23 | 92 | 1013.0 |
| 20260505025505 | 48 | 123 | 0.0 | 0.0 | 0.00 | 0.23 | 0.23 | 93 | 1013.1 |
| 20260505025005 | 48 | 123 | 0.0 | 0.0 | 0.00 | 0.23 | 0.23 | 92 | 1013.0 |
| 20260505024505 | 48 | 123 | 0.0 | 0.0 | 0.00 | 0.23 | 0.23 | 92 | 1013.0 |
| 20260505024005 | 48 | 123 | 0.0 | 0.0 | 0.00 | 0.23 | 0.23 | 92 | 1013.0 |
| 20260505023505 | 48 | 123 | 0.0 | 0.0 | 0.00 | 0.23 | 0.23 | 92 | 1013.0 |
| 20260505023005 | 48 | 123 | 0.0 | 0.0 | 0.00 | 0.23 | 0.23 | 92 | 1012.9 |
| 20260505022505 | 48 | 123 | 0.0 | 0.0 | 0.00 | 0.23 | 0.23 | 93 | 1013.2 |
| 20260505022005 | 48 | 123 | 0.0 | 0.0 | 0.00 | 0.23 | 0.23 | 93 | 1013.2 |
| 20260505021505 | 48 | 123 | 0.0 | 0.0 | 0.00 | 0.23 | 0.23 | 92 | 1013.2 |
| 20260505020005 | 48 | 123 | 0.0 | 0.0 | 0.00 | 0.23 | 0.23 | 92 | 1013.2 |
| 20260505015004 | 48 | 123 | 0.0 | 0.0 | 0.00 | 0.23 | 0.23 | 92 | 1013.3 |
| 20260505014005 | 48 | 123 | 0.0 | 0.0 | 0.00 | 0.23 | 0.23 | 91 | 1013.3 |
| 20260505012505 | 48 | 123 | 0.0 | 0.0 | 0.00 | 0.23 | 0.23 | 92 | 1013.5 |
| 20260505012005 | 48 | 123 | 0.0 | 0.0 | 0.00 | 0.23 | 0.23 | 92 | 1013.4 |
| 20260505011505 | 48 | 123 | 0.0 | 0.0 | 0.00 | 0.23 | 0.23 | 92 | 1013.3 |
| 20260505011005 | 48 | 123 | 0.0 | 0.0 | 0.00 | 0.23 | 0.23 | 92 | 1013.3 |
| 20260505010504 | 48 | 123 | 0.0 | 0.0 | 0.00 | 0.23 | 0.23 | 91 | 1013.3 |
| 20260505005005 | 49 | 123 | 0.0 | 0.0 | 0.00 | 0.23 | 0.23 | 91 | 1013.7 |
| 20260505004505 | 49 | 123 | 0.0 | 0.0 | 0.00 | 0.23 | 0.23 | 91 | 1013.8 |
| 20260505004005 | 49 | 123 | 0.0 | 2.0 | 0.00 | 0.23 | 0.23 | 91 | 1013.8 |
| 20260505003005 | 49 | 123 | 0.0 | 0.0 | 0.00 | 0.23 | 0.23 | 91 | 1013.6 |
| 20260505002504 | 49 | 123 | 0.0 | 0.0 | 0.00 | 0.23 | 0.23 | 91 | 1013.5 |
| 20260505002005 | 49 | 123 | 0.0 | 0.0 | 0.00 | 0.23 | 0.23 | 91 | 1013.6 |
| 20260505001505 | 49 | 123 | 0.0 | 0.0 | 0.00 | 0.23 | 0.23 | 91 | 1013.7 |
| 20260505001005 | 49 | 123 | 0.0 | 2.0 | 0.00 | 0.23 | 0.23 | 91 | 1013.6 |
| 20260505000505 | 49 | 260 | 1.0 | 2.0 | 0.00 | 0.23 | 0.23 | 91 | 1013.6 |
| 20260505000005 | 49 | 260 | 0.0 | 0.0 | 0.00 | 0.23 | 0.23 | 92 | 1013.7 |
| 20260504235505 | 49 | 260 | 0.0 | 0.0 | 0.00 | 0.23 | 0.23 | 92 | 1013.8 |
| 20260504235004 | 49 | 260 | 0.0 | 0.0 | 0.00 | 0.23 | 0.23 | 93 | 1013.8 |
| 20260504234505 | 49 | 260 | 0.0 | 0.0 | 0.00 | 0.23 | 0.23 | 93 | 1013.8 |
| 20260504233504 | 49 | 260 | 0.0 | 0.0 | 0.00 | 0.23 | 0.23 | 92 | 1013.9 |
| 20260504233005 | 49 | 260 | 0.0 | 2.0 | 0.00 | 0.23 | 0.23 | 93 | 1013.9 |
| 20260504232504 | 49 | 260 | 0.0 | 2.0 | 0.00 | 0.23 | 0.23 | 92 | 1013.7 |
| 20260504232005 | 49 | 260 | 0.0 | 0.0 | 0.01 | 0.23 | 0.23 | 92 | 1013.8 |
| 20260504231005 | 49 | 260 | 0.0 | 1.0 | 0.01 | 0.23 | 0.23 | 92 | 1013.8 |
| 20260504230505 | 49 | 259 | 0.0 | 0.0 | 0.01 | 0.23 | 0.23 | 93 | 1013.9 |
| 20260504230005 | 48 | 259 | 0.0 | 0.0 | 0.01 | 0.23 | 0.23 | 92 | 1013.9 |
| 20260504225505 | 48 | 259 | 0.0 | 0.0 | 0.01 | 0.23 | 0.23 | 92 | 1013.9 |
| 20260504224005 | 48 | 259 | 0.0 | 0.0 | 0.02 | 0.23 | 0.23 | 93 | 1014.0 |
| 20260504222505 | 48 | 259 | 0.0 | 0.0 | 0.05 | 0.23 | 0.23 | 93 | 1014.1 |
| 20260504222005 | 48 | 259 | 0.0 | 0.0 | 0.06 | 0.22 | 0.22 | 93 | 1014.2 |
| 20260504221005 | 48 | 259 | 0.0 | 2.0 | 0.08 | 0.22 | 0.22 | 93 | 1014.1 |
| 20260504220505 | 48 | 259 | 0.0 | 2.0 | 0.09 | 0.22 | 0.22 | 93 | 1014.1 |
| 20260504215504 | 47 | 259 | 0.0 | 2.0 | 0.11 | 0.22 | 0.22 | 92 | 1014.5 |
| 20260504215004 | 47 | 259 | 1.0 | 2.0 | 0.11 | 0.21 | 0.21 | 92 | 1014.6 |
| 20260504213005 | 47 | 261 | 1.0 | 3.0 | 0.11 | 0.20 | 0.20 | 92 | 1014.3 |
| 20260504212505 | 47 | 261 | 2.0 | 3.0 | 0.09 | 0.18 | 0.18 | 92 | 1014.3 |
| 20260504212004 | 48 | 262 | 2.0 | 3.0 | 0.07 | 0.16 | 0.16 | 92 | 1014.5 |
| 20260504211505 | 48 | 263 | 2.0 | 3.0 | 0.06 | 0.15 | 0.15 | 92 | 1014.5 |
| 20260504211004 | 48 | 262 | 1.0 | 3.0 | 0.05 | 0.14 | 0.14 | 92 | 1014.5 |
| 20260504210505 | 48 | 260 | 1.0 | 5.0 | 0.04 | 0.13 | 0.13 | 92 | 1014.4 |
| 20260504210005 | 48 | 269 | 2.0 | 3.0 | 0.03 | 0.12 | 0.12 | 91 | 1014.3 |
| 20260504205504 | 48 | 271 | 1.0 | 3.0 | 0.02 | 0.11 | 0.11 | 91 | 1014.3 |
| 20260504205005 | 48 | 271 | 2.0 | 3.0 | 0.01 | 0.10 | 0.10 | 91 | 1014.1 |
| 20260504204005 | 48 | 294 | 0.0 | 1.0 | 0.00 | 0.09 | 0.09 | 91 | 1014.2 |
| 20260504203504 | 49 | 294 | 1.0 | 2.0 | 0.00 | 0.09 | 0.09 | 91 | 1014.1 |
| 20260504201504 | 48 | 351 | 0.0 | 3.0 | 0.00 | 0.09 | 0.09 | 91 | 1013.9 |
| 20260504201004 | 48 | 254 | 1.0 | 3.0 | 0.00 | 0.09 | 0.09 | 91 | 1013.8 |
| 20260504200504 | 48 | 254 | 0.0 | 1.0 | 0.00 | 0.09 | 0.09 | 91 | 1013.8 |
| 20260504200004 | 48 | 254 | 1.0 | 3.0 | 0.00 | 0.09 | 0.09 | 90 | 1014.0 |
| 20260504195504 | 48 | 254 | 3.0 | 5.0 | 0.00 | 0.09 | 0.09 | 90 | 1014.0 |
| 20260504195004 | 48 | 199 | 1.0 | 3.0 | 0.00 | 0.09 | 0.09 | 92 | 1014.0 |
| 20260504194505 | 48 | 199 | 1.0 | 3.0 | 0.00 | 0.09 | 0.09 | 92 | 1014.0 |
| 20260504193505 | 47 | 199 | 0.0 | 3.0 | 0.00 | 0.09 | 0.09 | 92 | 1014.1 |
| 20260504193004 | 47 | 199 | 2.0 | 3.0 | 0.00 | 0.09 | 0.09 | 92 | 1014.1 |
| 20260504192505 | 47 | 199 | 2.0 | 3.0 | 0.00 | 0.09 | 0.09 | 92 | 1014.0 |
| 20260504191505 | 47 | 199 | 2.0 | 3.0 | 0.00 | 0.09 | 0.09 | 92 | 1014.1 |
| 20260504191005 | 47 | 211 | 2.0 | 3.0 | 0.00 | 0.09 | 0.09 | 93 | 1014.2 |
| 20260504190504 | 47 | 211 | 2.0 | 5.0 | 0.00 | 0.09 | 0.09 | 92 | 1014.2 |
| 20260504185505 | 47 | 212 | 2.0 | 3.0 | 0.01 | 0.09 | 0.09 | 92 | 1014.1 |
| 20260504185005 | 47 | 212 | 2.0 | 5.0 | 0.01 | 0.09 | 0.09 | 92 | 1014.2 |
| 20260504184005 | 47 | 289 | 1.0 | 3.0 | 0.01 | 0.09 | 0.09 | 92 | 1014.2 |
| 20260504183505 | 47 | 289 | 2.0 | 3.0 | 0.02 | 0.09 | 0.09 | 92 | 1014.2 |
| 20260504183005 | 47 | 292 | 1.0 | 2.0 | 0.02 | 0.09 | 0.09 | 93 | 1014.2 |
| 20260504182505 | 47 | 292 | 0.0 | 0.0 | 0.02 | 0.09 | 0.09 | 92 | 1014.3 |
| 20260504181504 | 47 | 292 | 0.0 | 0.0 | 0.02 | 0.09 | 0.09 | 93 | 1014.4 |
| 20260504181005 | 47 | 292 | 0.0 | 2.0 | 0.02 | 0.09 | 0.09 | 92 | 1014.3 |
| 20260504180504 | 47 | 292 | 1.0 | 2.0 | 0.03 | 0.09 | 0.09 | 92 | 1014.2 |
| 20260504175504 | 47 | 292 | 1.0 | 3.0 | 0.04 | 0.08 | 0.08 | 93 | 1013.9 |
| 20260504175004 | 47 | 292 | 1.0 | 3.0 | 0.05 | 0.08 | 0.08 | 93 | 1013.7 |
| 20260504174504 | 47 | 296 | 1.0 | 2.0 | 0.07 | 0.08 | 0.08 | 93 | 1013.6 |
| 20260504174005 | 46 | 296 | 0.0 | 0.0 | 0.08 | 0.08 | 0.08 | 92 | 1014.0 |
| 20260504173504 | 46 | 296 | 0.0 | 1.0 | 0.07 | 0.07 | 0.07 | 92 | 1013.9 |
| 20260504173005 | 46 | 296 | 0.0 | 0.0 | 0.07 | 0.07 | 0.07 | 92 | 1013.8 |
| 20260504172504 | 46 | 296 | 0.0 | 0.0 | 0.07 | 0.07 | 0.07 | 91 | 1013.8 |
| 20260504172005 | 46 | 296 | 1.0 | 2.0 | 0.07 | 0.07 | 0.07 | 91 | 1013.8 |
| 20260504171504 | 46 | 296 | 1.0 | 2.0 | 0.07 | 0.07 | 0.07 | 91 | 1013.7 |
| 20260504171005 | 46 | 296 | 0.0 | 1.0 | 0.07 | 0.07 | 0.07 | 91 | 1013.7 |
| 20260504151005 | 46 | 296 | 0.0 | 0.0 | 0.00 | 0.00 | 0.00 | 87 | 1013.7 |
| 20260504150505 | 46 | 296 | 0.0 | 0.0 | 0.00 | 0.00 | 0.00 | 87 | 1013.8 |
| 20260504141004 | 46 | 296 | 0.0 | 0.0 | 0.00 | 0.00 | 0.00 | 89 | 1013.3 |
| 20260504140505 | 46 | 296 | 0.0 | 0.0 | 0.00 | 0.00 | 0.00 | 89 | 1013.2 |
| 20260504130505 | 46 | 296 | 0.0 | 1.0 | 0.00 | 0.00 | 0.00 | 86 | 1012.6 |